sat.trackr.live / text

‹ back to catalog

STARLINK-35061

NORAD 66191 · 2025-243Q

PAYLOAD ACTIVE UNKNOWN

§ Identity

Operator
Country
US
Launch date
2025-10-26
Launch site
AFETR
Launch vehicle
Mass (kg)
RCS (m²)

Purposes: comms

External: N2YO · Heavens-Above · Gunter

§ Orbital elements

Epoch: 2026-05-25T00:04:36.048864Z

Period
94.11 min
Inclination
53.1577°
Eccentricity
0.0001286
Mean motion
15.30203042 rev/d
Perigee alt
474.3 km
Apogee alt
476.1 km
Semi-major
6,853.3 km
B*
4.8476e-4
RAAN
251.0717°
Arg perigee
83.3288°
Mean anomaly
276.7859°
Rev number
3,233

§ Raw data

STARLINK-350611 66191U 25243Q   26145.00319501  .00014026  00000+0  48476-3 0  99902 66191  53.1577 251.0717 0001286  83.3288 276.7859 15.30203042 32330

JSON: /api/v1/satellites/66191 · /tle

For live sub-satellite position, see the globe view (requires WebGL).

§ Visibility from observer

Set your observer location to see the next 7 days of passes ≥ 10°. The values pass through the URL so the page stays shareable.

No JS? Fill the form by hand. The geolocation button needs JavaScript.